User: anonymous   Login
Location: Theydon Bois
(51.6750°N, 0.1050°E)
Time: 17:29:29
(UTC+01:00)
Language:

Cosmos 2219 Rocket - Orbit

View from above orbital plane
View from above orbital plane
View from above satellite
View from above satellite

Ground track
Ground track

The orbit data is extracted from the following two-line orbital elements,

1 22220U 92076B   18196.77510664 -.00000266  00000-0 -10964-3 0  9992
2 22220  71.0010 310.7508 0011831  23.6402 128.9893 14.16432634326504
Epoch (UTC): 15 July 2018 18:36:09
Eccentricity: 0.0011831
inclination: 71.0010°
perigee height: 829 km
apogee height: 846 km
right ascension of ascending node: 310.7508°
argument of perigee: 23.6402°
revolutions per day: 14.16432634
mean anomaly at epoch: 128.9893°
orbit number at epoch: 32650

The dashed part of the orbit path shows where the satellite is in the earth's shadow,  

DLR